FW8620 Weather Reports


time (UTC)temp
F
wind
direction
speed
knots
gust
knots
rain 1hr
in
rain 24hr
in
rain mn
in
humidity
%
barometer
mb
20260506201220 63 289 4.3 11.3 0.00 0.00 0.00 64 1020.4
20260506200717 64 39 5.2 8.7 0.00 0.00 0.00 60 1020.3
20260506200214 63 322 5.2 8.7 0.00 0.00 0.00 62 1020.7
20260506195711 63 338 5.2 7.0 0.00 0.00 0.00 61 1020.8
20260506195207 63 303 3.5 6.1 0.00 0.00 0.00 61 1020.3
20260506194704 64 311 4.3 7.8 0.00 0.00 0.00 60 1020.8
20260506194201 63 30 4.3 5.2 0.00 0.00 0.00 60 1020.8
20260506193658 62 310 7.0 11.3 0.00 0.00 0.00 62 1020.6
20260506193155 62 313 2.6 7.0 0.00 0.00 0.00 63 1020.8
20260506192652 61 304 7.0 8.7 0.00 0.00 0.00 64 1020.8
20260506192148 62 4 4.3 6.1 0.00 0.00 0.00 64 1021.1
20260506191645 61 20 4.3 7.8 0.00 0.00 0.00 65 1021.0
20260506191141 61 313 4.3 6.1 0.00 0.00 0.00 64 1021.0
20260506190639 60 14 3.5 8.7 0.00 0.00 0.00 66 1021.1
20260506190135 61 312 4.3 7.8 0.00 0.00 0.00 64 1020.8
20260506185633 60 282 3.5 7.0 0.00 0.00 0.00 65 1021.0
20260506185128 60 304 4.3 6.1 0.00 0.00 0.00 64 1021.0
20260506184626 60 10 2.6 7.8 0.00 0.00 0.00 65 1021.1
20260506184123 60 23 3.5 7.0 0.00 0.00 0.00 66 1021.2
20260506183620 60 345 2.6 4.3 0.00 0.00 0.00 65 1021.1
20260506183116 59 44 2.6 8.7 0.00 0.00 0.00 66 1021.0
20260506182614 59 310 3.5 6.1 0.00 0.00 0.00 67 1021.0
20260506182110 59 298 6.1 7.0 0.00 0.00 0.00 66 1021.2
20260506181608 58 310 5.2 6.1 0.00 0.00 0.00 67 1021.1
20260506181105 58 301 2.6 7.0 0.00 0.00 0.00 68 1021.1
20260506180602 57 341 3.5 7.8 0.00 0.00 0.00 69 1021.3
20260506180058 58 22 2.6 5.2 0.00 0.00 0.00 68 1021.3
20260506175554 57 14 3.5 7.0 0.00 0.00 0.00 68 1021.5
20260506175051 57 324 4.3 6.1 0.00 0.00 0.00 68 1021.3
20260506174550 57 6 5.2 6.1 0.00 0.00 0.00 68 1021.2
20260506174045 57 9 4.3 7.8 0.00 0.00 0.00 68 1021.2
20260506173544 56 329 4.3 7.8 0.00 0.00 0.00 68 1021.3
20260506173040 56 292 5.2 7.8 0.00 0.00 0.00 69 1021.1
20260506172538 56 289 4.3 6.1 0.00 0.00 0.00 69 1021.5
20260506172033 55 302 5.2 7.0 0.00 0.00 0.00 69 1021.2
20260506171531 55 344 4.3 6.1 0.00 0.00 0.00 71 1021.2
20260506171028 55 4 2.6 5.2 0.00 0.00 0.00 70 1021.5
20260506170526 54 300 4.3 7.8 0.00 0.00 0.00 71 1021.2
20260506170018 53 306 5.2 7.0 0.00 0.00 0.00 73 1021.5
20260506165516 54 313 3.5 6.1 0.00 0.00 0.00 72 1021.2
20260506165012 54 29 1.7 5.2 0.00 0.00 0.00 72 1021.2
20260506164509 53 4 3.5 4.3 0.00 0.00 0.00 73 1021.3
20260506164006 53 25 3.5 7.8 0.00 0.00 0.00 72 1021.5
20260506163502 53 311 5.2 12.2 0.00 0.00 0.00 71 1021.3
20260506162956 53 16 2.6 5.2 0.00 0.00 0.00 73 1021.5
20260506162454 53 12 2.6 8.7 0.00 0.00 0.00 73 1021.5
20260506161951 53 325 4.3 6.1 0.00 0.00 0.00 72 1021.3
20260506161449 52 0 6.1 7.8 0.00 0.00 0.00 73 1021.3
20260506160946 52 33 1.7 7.8 0.00 0.00 0.00 73 1021.3
20260506160443 52 356 2.6 6.1 0.00 0.00 0.00 74 1021.5
20260506155941 52 353 6.1 7.8 0.00 0.00 0.00 74 1021.6
20260506155439 52 18 2.6 7.8 0.00 0.00 0.00 76 1021.5
20260506153611 51 33 3.5 4.3 0.00 0.00 0.00 76 1021.3
20260506153108 51 352 2.6 5.2 0.00 0.00 0.00 76 1021.3
20260506152605 51 42 3.5 5.2 0.00 0.00 0.00 77 1021.3
20260506152103 50 35 0.9 5.2 0.00 0.00 0.00 79 1021.5
20260506151601 50 343 2.6 4.3 0.00 0.00 0.00 80 1021.5
20260506151058 50 328 2.6 2.6 0.00 0.00 0.00 80 1021.3
20260506150554 50 5 1.7 2.6 0.00 0.00 0.00 80 1021.1
20260506150051 50 1 2.6 4.3 0.00 0.00 0.00 82 1021.1
20260506145548 50 29 2.6 4.3 0.00 0.00 0.00 82 1021.1
20260506145045 49 294 2.6 4.3 0.00 0.00 0.00 83 1021.1
20260506144542 49 37 0.9 2.6 0.00 0.00 0.00 84 1021.2
20260506144039 49 2 0.9 1.7 0.00 0.00 0.00 85 1021.1
20260506143537 48 14 0.9 2.6 0.00 0.00 0.00 87 1021.1
20260506143035 48 0 0.0 0.0 0.00 0.00 0.00 88 1021.1
20260506142532 48 304 2.6 2.6 0.00 0.00 0.00 88 1021.2
20260506142031 47 329 1.7 2.6 0.00 0.00 0.00 88 1020.9
20260506141528 47 324 1.7 2.6 0.00 0.00 0.00 89 1021.2
20260506141026 47 359 0.0 0.0 0.00 0.00 0.00 90 1021.1
20260506140523 46 322 0.0 0.0 0.00 0.00 0.00 91 1021.0
20260506140020 46 321 1.7 1.7 0.00 0.00 0.00 91 1021.0
20260506135517 46 317 0.9 1.7 0.00 0.00 0.00 92 1020.8
20260506135013 46 352 0.0 0.0 0.00 0.00 0.00 93 1020.7
20260506134510 45 249 0.0 0.9 0.00 0.00 0.00 93 1021.0
20260506134006 45 348 1.7 2.6 0.00 0.00 0.00 93 1020.7
20260506133503 45 307 0.0 0.0 0.00 0.00 0.00 93 1020.8
20260506133000 44 306 0.0 0.0 0.00 0.00 0.00 93 1020.8
20260506132457 45 334 1.7 2.6 0.00 0.00 0.00 93 1020.8
20260506131954 44 344 0.0 0.9 0.00 0.00 0.00 93 1020.8
20260506131451 44 301 0.0 0.0 0.00 0.00 0.00 93 1020.7
20260506130948 44 304 0.0 0.0 0.00 0.00 0.00 92 1020.7
20260506130444 44 344 0.0 0.0 0.00 0.00 0.00 92 1020.7
20260506125942 44 243 0.0 0.0 0.00 0.00 0.00 92 1020.6
20260506125440 45 237 0.0 2.6 0.00 0.00 0.00 91 1020.3
20260506124938 45 244 3.5 4.3 0.00 0.00 0.00 91 1020.2
20260506124435 45 237 0.9 2.6 0.00 0.00 0.00 91 1020.3
20260506123933 45 249 1.7 1.7 0.00 0.00 0.00 90 1020.4
20260506123431 45 283 0.0 2.6 0.00 0.00 0.00 90 1020.1
20260506122928 46 329 0.0 0.0 0.00 0.00 0.00 89 1020.2
20260506122425 46 324 0.9 1.7 0.00 0.00 0.00 89 1020.2
20260506121924 46 235 1.7 1.7 0.00 0.00 0.00 88 1020.3
20260506121420 47 245 1.7 2.6 0.00 0.00 0.00 87 1020.2
20260506120917 47 232 2.6 5.2 0.00 0.00 0.00 86 1020.2
20260506120414 47 237 3.5 4.3 0.00 0.00 0.00 85 1020.1
20260506115912 47 244 2.6 4.3 0.00 0.00 0.00 85 1020.2
20260506115410 47 239 1.7 1.7 0.00 0.00 0.00 85 1020.3
20260506114908 47 275 1.7 1.7 0.00 0.00 0.00 84 1020.2
20260506114405 47 318 0.0 0.0 0.00 0.00 0.00 84 1020.3
20260506113904 47 325 1.7 1.7 0.00 0.00 0.00 82 1020.1
20260506113401 47 238 0.9 1.7 0.00 0.00 0.00 81 1020.1
20260506112857 47 233 3.5 6.1 0.00 0.00 0.00 81 1020.3
20260506112354 47 286 1.7 1.7 0.00 0.00 0.00 81 1020.2
20260506111851 47 255 0.9 2.6 0.00 0.00 0.00 81 1020.1
20260506111350 47 291 2.6 5.2 0.00 0.00 0.00 82 1020.2
20260506110847 47 248 1.7 2.6 0.00 0.00 0.00 83 1019.9
20260506110344 47 294 0.9 1.7 0.00 0.00 0.00 83 1020.0
20260506105841 47 234 3.5 4.3 0.00 0.00 0.00 82 1020.0
20260506105337 47 246 2.6 5.2 0.00 0.00 0.00 84 1019.8
20260506104835 47 241 2.6 2.6 0.00 0.00 0.00 85 1019.9
20260506104332 47 230 1.7 4.3 0.00 0.00 0.00 85 1019.9
20260506103830 47 247 3.5 5.2 0.00 0.00 0.00 85 1019.9
20260506103327 47 229 3.5 6.1 0.00 0.00 0.00 85 1019.9
20260506102825 47 240 2.6 5.2 0.00 0.00 0.00 86 1019.9
20260506102322 47 237 2.6 4.3 0.00 0.00 0.00 86 1019.9
20260506101820 47 245 2.6 5.2 0.00 0.00 0.00 86 1019.9
20260506101315 47 239 2.6 4.3 0.00 0.00 0.00 86 1019.7
20260506100814 47 245 2.6 4.3 0.00 0.00 0.00 86 1020.0
20260506100312 47 231 3.5 5.2 0.00 0.00 0.00 85 1019.5
20260506095810 47 235 3.5 4.3 0.00 0.00 0.00 85 1019.8
20260506095306 47 230 3.5 5.2 0.00 0.00 0.00 85 1019.3
20260506094803 47 202 0.9 2.6 0.00 0.00 0.00 84 1019.7
20260506094302 47 232 2.6 4.3 0.00 0.00 0.00 85 1019.7
20260506093759 47 235 2.6 2.6 0.00 0.00 0.00 85 1019.7
20260506093256 46 240 4.3 6.1 0.00 0.00 0.00 87 1019.5
20260506092754 47 222 1.7 2.6 0.00 0.00 0.00 87 1019.8
20260506092252 47 237 1.7 5.2 0.00 0.00 0.00 86 1019.7
20260506091749 46 235 3.5 5.2 0.00 0.00 0.00 84 1019.9
20260506091246 46 243 2.6 4.3 0.00 0.00 0.00 86 1019.5
20260506090744 47 232 4.3 6.1 0.00 0.00 0.00 86 1019.7
20260506090241 46 255 3.5 7.0 0.00 0.00 0.00 86 1019.4
20260506085738 47 223 2.6 4.3 0.00 0.00 0.00 86 1019.8
20260506085234 46 219 5.2 7.0 0.00 0.00 0.00 86 1019.5
20260506084730 46 233 4.3 6.1 0.00 0.00 0.00 87 1019.3
20260506084227 46 230 5.2 6.1 0.00 0.00 0.00 88 1019.7
20260506083724 46 224 1.7 5.2 0.00 0.00 0.00 88 1019.4
20260506083222 46 251 1.7 7.0 0.00 0.00 0.00 87 1019.4
20260506082719 46 247 4.3 6.1 0.00 0.00 0.00 88 1019.5
20260506082214 46 249 2.6 4.3 0.00 0.00 0.00 87 1019.5
20260506081712 45 222 2.6 4.3 0.00 0.00 0.00 88 1019.7
20260506081210 45 248 2.6 5.2 0.00 0.00 0.00 88 1019.2
20260506080707 45 291 2.6 5.2 0.00 0.00 0.00 88 1019.5
20260506080204 45 234 2.6 5.2 0.00 0.00 0.00 88 1019.7
20260506073148 45 245 4.3 6.1 0.00 0.00 0.00 87 1019.3
20260506072644 45 216 3.5 7.0 0.00 0.00 0.00 87 1019.3
20260506072142 45 216 2.6 5.2 0.00 0.00 0.00 87 1019.5
20260506071640 45 229 4.3 5.2 0.00 0.00 0.00 87 1019.2
20260506071137 46 218 2.6 2.6 0.00 0.00 0.00 87 1019.1
20260506070634 45 234 4.3 7.8 0.00 0.00 0.00 87 1019.3
20260506070131 46 232 3.5 4.3 0.00 0.00 0.00 87 1019.3
20260506062108 45 232 3.5 5.2 0.00 0.03 0.03 88 1018.6
20260506061604 45 207 1.7 5.2 0.00 0.03 0.03 89 1018.6
20260506061102 45 208 0.9 6.1 0.00 0.03 0.03 89 1018.5
20260506060600 45 233 4.3 5.2 0.00 0.03 0.03 89 1018.6
20260506051029 45 234 2.6 4.3 0.00 0.03 0.03 88 1018.2
20260506050527 45 196 2.6 2.6 0.00 0.03 0.03 88 1018.2
20260506045017 45 224 3.5 6.1 0.00 0.03 0.03 88 1018.2
20260506044515 46 213 4.3 6.1 0.00 0.03 0.03 87 1018.2
20260506044012 46 228 3.5 6.1 0.00 0.03 0.03 87 1018.1
20260506043509 46 240 4.3 6.1 0.00 0.03 0.03 87 1018.2
20260506043007 46 239 4.3 6.1 0.00 0.03 0.03 88 1018.0
20260506042506 46 218 2.6 5.2 0.00 0.03 0.03 88 1018.0
20260506042003 46 250 5.2 6.1 0.00 0.03 0.03 88 1018.0
20260506041502 46 246 6.1 7.0 0.00 0.03 0.03 88 1018.0
20260506040958 46 233 4.3 6.1 0.00 0.03 0.03 88 1017.9
20260506040456 46 244 2.6 4.3 0.00 0.03 0.03 88 1017.8
20260506035952 46 242 2.6 4.3 0.00 0.03 0.03 88 1017.9
20260506035449 46 249 4.3 7.8 0.00 0.03 0.03 88 1017.5
20260506034945 46 223 0.9 4.3 0.00 0.03 0.03 88 1017.6
20260506034443 46 223 4.3 5.2 0.00 0.03 0.03 89 1017.5
20260506033940 46 242 2.6 5.2 0.00 0.03 0.03 89 1017.5
20260506033438 46 233 4.3 6.1 0.00 0.03 0.03 89 1017.3
20260506032934 46 218 4.3 7.0 0.00 0.03 0.03 89 1017.1
20260506032431 46 204 2.6 6.1 0.00 0.03 0.03 89 1017.3
20260506031927 46 236 4.3 7.8 0.00 0.03 0.03 89 1017.3
20260506031425 46 188 0.9 4.3 0.00 0.03 0.03 89 1017.1
20260506030923 46 219 3.5 5.2 0.00 0.03 0.03 88 1017.0
20260506030420 46 242 4.3 6.1 0.00 0.03 0.03 88 1016.9
20260506025917 46 251 1.7 5.2 0.00 0.03 0.03 89 1017.0
20260506025414 46 252 2.6 7.0 0.00 0.03 0.03 88 1016.7
20260506024911 46 234 3.5 5.2 0.00 0.03 0.03 87 1016.9
20260506024408 46 258 4.3 5.2 0.00 0.03 0.03 88 1016.6
20260506023904 47 160 2.6 6.1 0.00 0.03 0.03 88 1016.6
20260506023401 47 242 2.6 4.3 0.00 0.03 0.03 86 1016.4
20260506022857 47 245 4.3 7.0 0.00 0.03 0.03 83 1016.6
20260506022354 48 295 0.9 2.6 0.00 0.03 0.03 83 1016.6
20260506021853 48 257 2.6 4.3 0.00 0.03 0.03 80 1016.5
20260506021349 48 275 3.5 7.0 0.00 0.03 0.03 79 1016.6
20260506020846 48 234 2.6 4.3 0.00 0.03 0.03 79 1016.5
20260506020344 48 259 3.5 7.0 0.00 0.03 0.03 79 1016.5
20260506015841 48 273 3.5 6.1 0.00 0.03 0.03 80 1016.1
20260506015339 48 246 1.7 2.6 0.00 0.03 0.03 80 1016.2
20260506014836 48 230 5.2 6.1 0.00 0.03 0.03 80 1016.3
20260506014332 48 249 3.5 6.1 0.00 0.03 0.03 80 1016.4
20260506013829 48 305 4.3 5.2 0.00 0.03 0.03 80 1016.2
20260506013326 48 294 5.2 7.0 0.00 0.03 0.03 79 1016.3
20260506012823 48 296 4.3 6.1 0.00 0.03 0.03 79 1016.2
20260506012320 48 233 5.2 6.1 0.00 0.03 0.03 79 1016.2
20260506011817 48 244 2.6 6.1 0.00 0.03 0.03 80 1016.2
20260506011314 48 244 5.2 7.8 0.00 0.03 0.03 79 1015.7
20260506010811 48 241 4.3 7.0 0.00 0.03 0.03 79 1016.0
20260506010309 48 259 2.6 6.1 0.00 0.03 0.03 79 1016.1
20260506005806 48 321 5.2 7.8 0.00 0.03 0.03 80 1015.8
20260506005305 48 204 3.5 7.8 0.00 0.03 0.03 80 1016.0
20260506004758 48 223 4.3 7.0 0.00 0.03 0.03 80 1016.0
20260506004256 48 216 5.2 8.7 0.00 0.03 0.03 81 1016.3
20260506003752 48 289 2.6 5.2 0.00 0.03 0.03 83 1016.3
20260506003249 47 247 1.7 4.3 0.00 0.03 0.03 85 1016.3
20260506002745 47 261 2.6 4.3 0.00 0.03 0.03 86 1016.1
20260506002241 47 235 2.6 5.2 0.00 0.03 0.03 87 1016.1
20260506001737 46 247 0.9 2.6 0.00 0.03 0.03 88 1016.0
20260506001235 47 278 0.9 2.6 0.00 0.03 0.03 90 1016.0
20260506000731 47 314 2.6 2.6 0.00 0.03 0.03 89 1016.0
20260506000229 47 273 4.3 6.1 0.00 0.03 0.03 88 1015.7
20260505235726 47 217 2.6 6.1 0.00 0.03 0.03 87 1015.6
20260505235224 47 290 3.5 6.1 0.00 0.03 0.03 86 1015.6
20260505234720 47 260 5.2 7.0 0.00 0.03 0.03 85 1016.0
20260505234218 47 236 2.6 7.0 0.00 0.03 0.03 85 1015.5
20260505233714 47 278 3.5 4.3 0.00 0.03 0.03 86 1015.7
20260505233212 47 294 1.7 4.3 0.00 0.03 0.03 88 1016.0
20260505232709 47 259 5.2 7.0 0.00 0.03 0.03 88 1015.7
20260505232207 47 292 4.3 7.8 0.00 0.03 0.03 87 1016.0
20260505231703 47 244 1.7 1.7 0.00 0.03 0.03 87 1015.8
20260505231202 48 233 2.6 4.3 0.00 0.03 0.03 85 1015.7
20260505230700 48 238 4.3 5.2 0.00 0.03 0.03 84 1015.8
20260505230156 48 276 4.3 6.1 0.00 0.03 0.03 82 1015.8
20260505225652 48 266 4.3 5.2 0.00 0.03 0.03 81 1015.8
20260505225149 48 352 2.6 7.8 0.00 0.03 0.03 82 1015.6
20260505224645 48 234 3.5 5.2 0.00 0.03 0.03 84 1016.0
20260505224143 48 276 4.3 5.2 0.00 0.03 0.03 83 1015.8
20260505223641 47 260 4.3 5.2 0.00 0.03 0.03 84 1016.1
20260505223136 47 308 1.7 5.2 0.00 0.03 0.03 84 1015.8
20260505222632 47 205 3.5 6.1 0.00 0.03 0.03 86 1016.2
20260505222129 47 257 0.9 5.2 0.00 0.03 0.03 86 1016.2
20260505221626 48 254 1.7 6.1 0.00 0.03 0.03 86 1016.0
20260505221122 48 282 2.6 4.3 0.00 0.03 0.03 83 1016.3
20260505220620 48 313 5.2 6.1 0.00 0.03 0.03 83 1016.2
20260505220117 47 265 1.7 7.0 0.00 0.03 0.03 85 1016.1
20260505215615 47 320 3.5 5.2 0.00 0.03 0.03 85 1016.3
20260505215113 48 304 1.7 4.3 0.00 0.03 0.03 85 1016.1
20260505214611 48 291 1.7 6.1 0.00 0.03 0.03 83 1016.1
20260505214108 48 225 3.5 5.2 0.00 0.03 0.03 84 1016.2
20260505213605 48 293 2.6 4.3 0.00 0.03 0.03 86 1016.2
20260505213102 47 265 3.5 5.2 0.00 0.03 0.03 86 1016.2
20260505212558 47 222 1.7 1.7 0.00 0.03 0.03 85 1016.4
20260505212056 47 216 3.5 6.1 0.00 0.03 0.03 84 1016.3
20260505211552 47 232 2.6 4.3 0.00 0.03 0.03 86 1016.2
20260505211049 47 305 1.7 4.3 0.00 0.03 0.03 85 1016.3
20260505210546 47 225 1.7 4.3 0.00 0.03 0.03 85 1016.3
20260505210043 47 240 1.7 4.3 0.00 0.03 0.03 85 1016.2
20260505205541 48 309 3.5 5.2 0.00 0.03 0.03 85 1016.4
20260505205038 47 292 3.5 5.2 0.00 0.03 0.03 87 1016.3
20260505204535 46 313 3.5 4.3 0.00 0.03 0.03 89 1016.3
20260505204033 46 345 1.7 2.6 0.00 0.03 0.03 90 1016.3
20260505203529 46 249 1.7 5.2 0.00 0.03 0.03 90 1016.2
20260505203026 46 218 2.6 6.1 0.00 0.03 0.03 91 1016.1
20260505202522 46 235 2.6 4.3 0.00 0.03 0.03 92 1016.2
20260505202018 46 221 6.1 7.0 0.00 0.03 0.03 92 1016.0